Skip Page Navigation
NASA JPL Caltech
NASA Logo - Jet Propulsion Laboratory + View the NASA Portal
+ Center for Near-Earth Object Studies
JPL Home Earth Solar System Stars & Galaxies Technology
JPL Solar System Dynamics
BODIES ORBITS EPHEMERIDES TOOLS PHYSICAL DATA DISCOVERY FAQ SITE MAP
JPL Small-Body Database Browser
Search: [ help ]  
243536 Mannheim (2010 EQ111)
Classification: Main-belt Asteroid          SPK-ID: 2243536
Ephemeris | Orbit Diagram | Orbital Elements | Mission Design | Physical Parameters | Discovery Circumstances | Close-Approach Data ]

[ show orbit diagram ]
Orbital Elements at Epoch 2459000.5 (2020-May-31.0) TDB
Reference: JPL 19 (heliocentric ecliptic J2000)
 Element Value Uncertainty (1-sigma)   Units 
e .1064033652970256 4.317e-08  
a 3.108453054915833 3.5405e-08 au
q 2.777703189004968 1.3382e-07 au
i 7.689384568843129 5.1995e-06 deg
node 135.7385095311465 3.8699e-05 deg
peri 134.8386128489554 4.6453e-05 deg
M 226.3135034894508 2.6719e-05 deg
tp 2459743.861282490897
(2022-Jun-13.36128249)
0.00015282 TDB
period 2001.77331803744
5.48
3.42e-05
9.363e-08
d
yr
n .1798405427608296 3.0726e-09 deg/d
Q 3.439202920826697 3.9173e-08 au
  Orbit Determination Parameters
   # obs. used (total)      306  
   data-arc span      6714 days (18.38 yr)  
   first obs. used      2001-09-12  
   last obs. used      2020-01-30  
   planetary ephem.      DE431  
   SB-pert. ephem.      SB431-N16  
   condition code      0  
   norm. resid. RMS      .55486  
   source      ORB  
   producer      Otto Matic  
   solution date      2020-Feb-25 09:22:02  

Additional Information
 Earth MOID = 1.7682 au 
 Jupiter MOID = 1.71005 au 
 T_jup = 3.197 
[ show covariance matrix ]

Ephemeris | Orbit Diagram | Orbital Elements | Mission Design | Physical Parameters | Discovery Circumstances | Close-Approach Data ]

Physical Parameter Table
Parameter Symbol Value Units Sigma Reference Notes
absolute magnitude H 15.5   n/a MPO422946  
diameter diameter 3.511 km 0.739 urn:nasa:pds:neowise_diameters_albedos::2.0[mainbelt] (http://adsabs.harvard.edu/abs/2011ApJ...741...68M)  
geometric albedo albedo 0.099   0.033 urn:nasa:pds:neowise_diameters_albedos::2.0[mainbelt] (http://adsabs.harvard.edu/abs/2011ApJ...741...68M)  

243536 Mannheim           Discovered 2010 Mar. 15 by E. Schwab at the Tzec Maun Observatory, Moorook.
Mannheim is a German city in the federal state of Baden-Württemberg, where Karl Benz appeared on the streets with his first car in 1886. The Mannheim Observatory, which was in operation from 1772 to 1880, was visited by well-known people, such as Wolfgang Amadeus Mozart and Benjamin Franklin.
NOTE: some special characters may not display properly (any characters within {} are an attempt to place the proper accent above a character)
Reference: 20100923/MPCPages.arcLast Updated: 2010-12-06

[ show close-approach data ]
Alternate Designations
 2010 EQ111 = 2005 JB136 
Ephemeris | Orbit Diagram | Orbital Elements | Mission Design | Physical Parameters | Discovery Circumstances | Close-Approach Data ]
ABOUT SSD CREDITS/AWARDS PRIVACY/COPYRIGHT GLOSSARY LINKS
FirstGov 2020-Aug-07 10:37 UT
(server date/time)  
NASA Home Page
Site Manager:   Ryan S. Park
Webmaster  Alan B. Chamberlin